Time,TemperatureF,DewpointF,PressureIn,WindDirection,WindDirectionDegrees,WindSpeedMPH,WindSpeedGustMPH,Humidity,HourlyPrecipIn,Conditions,Clouds,dailyrainin,SoftwareType,DateUTC
2013-03-29 00:03:00,32.0,29.0,29.92,NW,311,2.0,4.0,89,0.00,,,0.01,,2013-03-29 04:03:00,
2013-03-29 00:13:00,32.0,29.0,29.92,NW,311,2.0,4.0,89,0.00,,,0.01,,2013-03-29 04:13:00,
2013-03-29 00:23:00,30.0,28.0,29.91,West,276,3.0,5.0,91,0.00,,,0.01,,2013-03-29 04:23:00,
2013-03-29 00:33:00,32.0,30.0,29.91,WNW,290,4.0,6.0,94,0.00,,,0.01,,2013-03-29 04:33:00,
2013-03-29 00:43:00,32.0,30.0,29.91,WNW,290,4.0,6.0,94,0.00,,,0.01,,2013-03-29 04:43:00,
2013-03-29 00:53:00,35.0,32.0,29.92,West,267,3.0,6.0,88,0.00,,,0.01,,2013-03-29 04:53:00,
2013-03-29 01:03:00,36.0,32.0,29.92,WNW,290,1.0,6.0,85,0.00,,,0.01,,2013-03-29 05:03:00,
2013-03-29 01:13:00,36.0,32.0,29.92,WNW,290,1.0,6.0,85,0.00,,,0.01,,2013-03-29 05:13:00,
2013-03-29 01:23:00,35.0,31.0,29.93,West,279,2.0,6.0,86,0.00,,,0.01,,2013-03-29 05:23:00,
2013-03-29 01:33:00,37.0,33.0,29.93,WSW,250,0.0,3.0,84,0.00,,,0.01,,2013-03-29 05:33:00,
2013-03-29 01:43:00,37.0,33.0,29.93,WSW,250,0.0,3.0,84,0.00,,,0.01,,2013-03-29 05:43:00,
2013-03-29 01:52:00,36.0,31.0,29.93,NNW,330,0.0,3.0,83,0.00,,,0.01,,2013-03-29 05:52:00,
2013-03-29 02:02:00,35.0,31.0,29.92,WNW,303,1.0,4.0,86,0.00,,,0.01,,2013-03-29 06:02:00,
2013-03-29 02:12:00,35.0,31.0,29.92,WNW,303,1.0,4.0,86,0.00,,,0.01,,2013-03-29 06:12:00,
2013-03-29 02:23:00,35.0,32.0,29.92,WSW,238,3.0,5.0,87,0.00,,,0.01,,2013-03-29 06:23:00,
2013-03-29 02:32:00,35.0,31.0,29.92,West,266,1.0,4.0,86,0.00,,,0.01,,2013-03-29 06:32:00,
2013-03-29 02:42:00,35.0,31.0,29.92,West,266,1.0,4.0,86,0.00,,,0.01,,2013-03-29 06:42:00,
2013-03-29 02:52:00,35.0,32.0,29.92,WNW,286,2.0,4.0,88,0.00,,,0.01,,2013-03-29 06:52:00,
2013-03-29 03:03:00,35.0,32.0,29.92,NW,306,0.0,3.0,87,0.00,,,0.01,,2013-03-29 07:03:00,
2013-03-29 03:12:00,35.0,32.0,29.92,NW,306,0.0,3.0,87,0.00,,,0.01,,2013-03-29 07:12:00,
2013-03-29 03:22:00,35.0,32.0,29.92,NW,324,0.0,1.0,87,0.00,,,0.01,,2013-03-29 07:22:00,
2013-03-29 03:32:00,35.0,32.0,29.92,NNW,329,0.0,2.0,88,0.00,,,0.01,,2013-03-29 07:32:00,
2013-03-29 03:42:00,35.0,32.0,29.92,NNW,329,0.0,2.0,88,0.00,,,0.01,,2013-03-29 07:42:00,
2013-03-29 03:52:00,34.0,31.0,29.92,WNW,298,1.0,2.0,88,0.00,,,0.01,,2013-03-29 07:52:00,
2013-03-29 04:02:00,35.0,32.0,29.92,WNW,298,0.0,1.0,87,0.00,,,0.01,,2013-03-29 08:02:00,
2013-03-29 04:12:00,35.0,32.0,29.92,WNW,298,0.0,1.0,87,0.00,,,0.01,,2013-03-29 08:12:00,
2013-03-29 04:22:00,34.0,31.0,29.92,North,355,1.0,2.0,89,0.00,,,0.01,,2013-03-29 08:22:00,
2013-03-29 04:32:00,35.0,32.0,29.92,NW,321,0.0,2.0,89,0.00,,,0.01,,2013-03-29 08:32:00,
2013-03-29 04:42:00,35.0,32.0,29.92,NW,321,0.0,2.0,89,0.00,,,0.01,,2013-03-29 08:42:00,
2013-03-29 04:53:00,35.0,32.0,29.92,WNW,283,2.0,3.0,89,0.00,,,0.01,,2013-03-29 08:53:00,
2013-03-29 05:02:00,35.0,32.0,29.91,WNW,283,0.0,2.0,88,0.00,,,0.01,,2013-03-29 09:02:00,
2013-03-29 05:13:00,35.0,32.0,29.91,WNW,283,0.0,2.0,88,0.00,,,0.01,,2013-03-29 09:13:00,
2013-03-29 05:22:00,35.0,32.0,29.91,West,272,2.0,3.0,89,0.00,,,0.01,,2013-03-29 09:22:00,
2013-03-29 05:33:00,34.0,31.0,29.91,WNW,292,3.0,5.0,90,0.00,,,0.01,,2013-03-29 09:33:00,
2013-03-29 05:43:00,34.0,31.0,29.91,WNW,292,3.0,5.0,90,0.00,,,0.01,,2013-03-29 09:43:00,
2013-03-29 05:52:00,34.0,32.0,29.91,WNW,298,1.0,5.0,91,0.00,,,0.01,,2013-03-29 09:52:00,
2013-03-29 06:03:00,33.0,31.0,29.91,WNW,285,1.0,3.0,92,0.00,,,0.01,,2013-03-29 10:03:00,
2013-03-29 06:12:00,33.0,31.0,29.91,WNW,285,1.0,3.0,92,0.00,,,0.01,,2013-03-29 10:12:00,
2013-03-29 06:23:00,32.0,30.0,29.91,WNW,285,0.0,0.0,92,0.00,,,0.01,,2013-03-29 10:23:00,
2013-03-29 06:33:00,31.0,29.0,29.92,WNW,285,0.0,2.0,93,0.00,,,0.01,,2013-03-29 10:33:00,
2013-03-29 06:42:00,31.0,29.0,29.92,WNW,285,0.0,2.0,93,0.00,,,0.01,,2013-03-29 10:42:00,
2013-03-29 06:53:00,32.0,30.0,29.92,WNW,292,2.0,3.0,94,0.00,,,0.01,,2013-03-29 10:53:00,
2013-03-29 07:03:00,31.0,29.0,29.93,WNW,294,0.0,3.0,94,0.00,,,0.01,,2013-03-29 11:03:00,
2013-03-29 07:12:00,31.0,29.0,29.93,WNW,294,0.0,3.0,94,0.00,,,0.01,,2013-03-29 11:12:00,
2013-03-29 07:23:00,31.0,29.0,29.93,WNW,294,0.0,0.0,94,0.00,,,0.01,,2013-03-29 11:23:00,
2013-03-29 07:33:00,33.0,31.0,29.93,WNW,294,0.0,0.0,94,0.00,,,0.01,,2013-03-29 11:33:00,
2013-03-29 07:42:00,33.0,31.0,29.93,WNW,294,0.0,0.0,94,0.00,,,0.01,,2013-03-29 11:42:00,
2013-03-29 07:53:00,34.0,32.0,29.93,WNW,294,0.0,0.0,92,0.00,,,0.01,,2013-03-29 11:53:00,
2013-03-29 08:03:00,36.0,34.0,29.93,SW,234,0.0,1.0,91,0.00,,,0.01,,2013-03-29 12:03:00,
2013-03-29 08:13:00,36.0,34.0,29.93,SW,234,0.0,1.0,91,0.00,,,0.01,,2013-03-29 12:13:00,
2013-03-29 08:22:00,41.0,37.0,29.93,North,355,2.0,4.0,85,0.00,,,0.01,,2013-03-29 12:22:00,
2013-03-29 08:32:00,42.0,37.0,29.93,WSW,246,3.0,5.0,82,0.00,,,0.01,,2013-03-29 12:32:00,
2013-03-29 08:42:00,42.0,37.0,29.93,WSW,246,3.0,5.0,82,0.00,,,0.01,,2013-03-29 12:42:00,
2013-03-29 08:53:00,44.0,38.0,29.93,NW,314,3.0,8.0,78,0.00,,,0.01,,2013-03-29 12:53:00,
2013-03-29 09:03:00,45.0,38.0,29.93,WSW,258,2.0,8.0,77,0.00,,,0.01,,2013-03-29 13:03:00,
2013-03-29 09:13:00,45.0,38.0,29.93,WSW,258,2.0,8.0,77,0.00,,,0.01,,2013-03-29 13:13:00,
2013-03-29 09:23:00,46.0,38.0,29.93,WNW,288,3.0,8.0,74,0.00,,,0.01,,2013-03-29 13:23:00,
2013-03-29 09:33:00,47.0,38.0,29.92,ENE,78,3.0,11.0,72,0.00,,,0.01,,2013-03-29 13:33:00,
2013-03-29 09:43:00,47.0,38.0,29.92,ENE,78,3.0,11.0,72,0.00,,,0.01,,2013-03-29 13:43:00,
2013-03-29 09:53:00,48.0,38.0,29.92,West,276,3.0,10.0,68,0.00,,,0.01,,2013-03-29 13:53:00,
2013-03-29 10:03:00,49.0,39.0,29.92,NW,320,4.0,10.0,69,0.00,,,0.01,,2013-03-29 14:03:00,
2013-03-29 10:12:00,49.0,39.0,29.92,NW,320,4.0,10.0,69,0.00,,,0.01,,2013-03-29 14:12:00,
2013-03-29 10:22:00,49.0,39.0,29.92,NW,318,5.0,9.0,67,0.00,,,0.01,,2013-03-29 14:22:00,
2013-03-29 10:33:00,49.0,39.0,29.92,WNW,286,7.0,11.0,67,0.00,,,0.01,,2013-03-29 14:33:00,
2013-03-29 10:42:00,49.0,39.0,29.92,WNW,286,7.0,11.0,67,0.00,,,0.01,,2013-03-29 14:42:00,
2013-03-29 10:53:00,50.0,38.0,29.92,NNE,15,3.0,11.0,64,0.00,,,0.01,,2013-03-29 14:53:00,
2013-03-29 11:02:00,50.0,38.0,29.91,North,355,5.0,12.0,62,0.00,,,0.01,,2013-03-29 15:02:00,
2013-03-29 11:12:00,50.0,38.0,29.91,North,355,5.0,12.0,62,0.00,,,0.01,,2013-03-29 15:12:00,
2013-03-29 11:22:00,51.0,38.0,29.91,NE,38,6.0,12.0,60,0.00,,,0.01,,2013-03-29 15:22:00,
2013-03-29 11:33:00,52.0,38.0,29.91,SW,219,3.0,11.0,59,0.00,,,0.01,,2013-03-29 15:33:00,
2013-03-29 11:43:00,52.0,38.0,29.91,SW,219,3.0,11.0,59,0.00,,,0.01,,2013-03-29 15:43:00,
2013-03-29 11:53:00,51.0,37.0,29.91,NW,307,2.0,12.0,58,0.00,,,0.01,,2013-03-29 15:53:00,
2013-03-29 12:03:00,51.0,36.0,29.91,SSW,192,4.0,8.0,57,0.00,,,0.01,,2013-03-29 16:03:00,
2013-03-29 12:13:00,51.0,36.0,29.91,SSW,192,4.0,8.0,57,0.00,,,0.01,,2013-03-29 16:13:00,
2013-03-29 12:23:00,51.0,35.0,29.91,North,5,6.0,12.0,55,0.00,,,0.00,,2013-03-29 16:23:00,
2013-03-29 12:33:00,52.0,36.0,29.91,West,262,7.0,16.0,55,0.00,,,0.00,,2013-03-29 16:33:00,
2013-03-29 12:43:00,52.0,36.0,29.91,West,262,7.0,16.0,55,0.00,,,0.00,,2013-03-29 16:43:00,
2013-03-29 12:53:00,53.0,37.0,29.90,WNW,289,8.0,13.0,54,0.00,,,0.00,,2013-03-29 16:53:00,
2013-03-29 13:03:00,53.0,36.0,29.90,West,270,1.0,15.0,52,0.00,,,0.00,,2013-03-29 17:03:00,
2013-03-29 13:12:00,53.0,36.0,29.90,West,270,1.0,15.0,52,0.00,,,0.00,,2013-03-29 17:12:00,
2013-03-29 13:23:00,52.0,34.0,29.90,WNW,290,1.0,10.0,51,0.00,,,0.00,,2013-03-29 17:23:00,
2013-03-29 13:33:00,52.0,34.0,29.90,WNW,303,6.0,12.0,50,0.00,,,0.00,,2013-03-29 17:33:00,
2013-03-29 13:43:00,52.0,34.0,29.90,WNW,303,6.0,12.0,50,0.00,,,0.00,,2013-03-29 17:43:00,
2013-03-29 13:53:00,52.0,34.0,29.89,West,274,5.0,13.0,50,0.00,,,0.00,,2013-03-29 17:53:00,
2013-03-29 14:02:00,52.0,34.0,29.89,NW,317,2.0,11.0,50,0.00,,,0.00,,2013-03-29 18:02:00,
2013-03-29 14:12:00,52.0,34.0,29.89,NW,317,2.0,11.0,50,0.00,,,0.00,,2013-03-29 18:12:00,
2013-03-29 14:23:00,52.0,34.0,29.89,WSW,238,4.0,9.0,50,0.00,,,0.00,,2013-03-29 18:23:00,
2013-03-29 14:32:00,52.0,33.0,29.89,NNW,328,4.0,7.0,49,0.00,,,0.00,,2013-03-29 18:32:00,
2013-03-29 14:42:00,52.0,33.0,29.89,NNW,328,4.0,7.0,49,0.00,,,0.00,,2013-03-29 18:42:00,
2013-03-29 14:53:00,52.0,33.0,29.89,West,270,5.0,10.0,49,0.00,,,0.00,,2013-03-29 18:53:00,
2013-03-29 15:03:00,51.0,33.0,29.89,North,349,5.0,12.0,50,0.00,,,0.00,,2013-03-29 19:03:00,
2013-03-29 15:12:00,52.0,33.0,29.89,West,280,4.0,11.0,48,0.00,,,0.00,,2013-03-29 19:12:00,
2013-03-29 15:23:00,52.0,33.0,29.89,West,280,4.0,11.0,48,0.00,,,0.00,,2013-03-29 19:23:00,
2013-03-29 15:33:00,51.0,31.0,29.89,NW,304,2.0,9.0,47,0.00,,,0.00,,2013-03-29 19:33:00,
2013-03-29 15:43:00,51.0,31.0,29.89,NW,304,2.0,9.0,47,0.00,,,0.00,,2013-03-29 19:43:00,
2013-03-29 15:53:00,51.0,32.0,29.89,WSW,258,1.0,7.0,48,0.00,,,0.00,,2013-03-29 19:53:00,
2013-03-29 16:03:00,51.0,32.0,29.89,WNW,284,2.0,9.0,48,0.00,,,0.00,,2013-03-29 20:03:00,
2013-03-29 16:12:00,51.0,32.0,29.89,WNW,284,2.0,9.0,48,0.00,,,0.00,,2013-03-29 20:12:00,
2013-03-29 16:23:00,51.0,33.0,29.89,West,273,4.0,7.0,49,0.00,,,0.00,,2013-03-29 20:23:00,
2013-03-29 16:33:00,51.0,34.0,29.89,West,268,5.0,9.0,52,0.00,,,0.00,,2013-03-29 20:33:00,
2013-03-29 16:42:00,51.0,34.0,29.89,West,268,5.0,9.0,52,0.00,,,0.00,,2013-03-29 20:42:00,
2013-03-29 16:52:00,51.0,34.0,29.89,NW,309,3.0,8.0,51,0.00,,,0.00,,2013-03-29 20:52:00,
2013-03-29 17:02:00,50.0,32.0,29.89,WSW,253,5.0,11.0,49,0.00,,,0.00,,2013-03-29 21:02:00,
2013-03-29 17:12:00,50.0,32.0,29.89,WSW,253,5.0,11.0,49,0.00,,,0.00,,2013-03-29 21:12:00,
2013-03-29 17:22:00,50.0,31.0,29.89,West,262,4.0,12.0,48,0.00,,,0.00,,2013-03-29 21:22:00,
2013-03-29 17:33:00,50.0,32.0,29.89,West,273,5.0,12.0,49,0.00,,,0.00,,2013-03-29 21:33:00,
2013-03-29 17:43:00,50.0,32.0,29.89,West,273,5.0,12.0,49,0.00,,,0.00,,2013-03-29 21:43:00,
2013-03-29 17:53:00,50.0,32.0,29.90,WSW,258,3.0,10.0,50,0.00,,,0.00,,2013-03-29 21:53:00,
2013-03-29 18:03:00,50.0,32.0,29.90,WSW,252,1.0,7.0,50,0.00,,,0.00,,2013-03-29 22:03:00,
2013-03-29 18:13:00,50.0,32.0,29.90,WSW,252,1.0,7.0,50,0.00,,,0.00,,2013-03-29 22:13:00,
2013-03-29 18:23:00,49.0,32.0,29.90,West,265,3.0,8.0,51,0.00,,,0.00,,2013-03-29 22:23:00,
2013-03-29 18:33:00,49.0,33.0,29.90,WNW,297,3.0,6.0,54,0.00,,,0.00,,2013-03-29 22:33:00,
2013-03-29 18:42:00,49.0,33.0,29.90,WNW,297,3.0,6.0,54,0.00,,,0.00,,2013-03-29 22:42:00,
2013-03-29 18:54:00,48.0,31.0,29.91,WSW,254,4.0,8.0,52,0.00,,,0.00,,2013-03-29 22:54:00,
2013-03-29 19:03:00,48.0,32.0,29.91,WSW,257,3.0,7.0,53,0.00,,,0.00,,2013-03-29 23:03:00,
2013-03-29 19:12:00,48.0,32.0,29.91,WSW,257,3.0,7.0,53,0.00,,,0.00,,2013-03-29 23:12:00,
2013-03-29 19:22:00,47.0,31.0,29.91,West,277,2.0,9.0,53,0.00,,,0.00,,2013-03-29 23:22:00,
2013-03-29 19:32:00,47.0,32.0,29.92,WNW,288,4.0,9.0,55,0.00,,,0.00,,2013-03-29 23:32:00,
2013-03-29 19:42:00,47.0,32.0,29.92,WNW,288,4.0,9.0,55,0.00,,,0.00,,2013-03-29 23:42:00,
2013-03-29 19:53:00,46.0,31.0,29.92,WSW,257,3.0,7.0,56,0.00,,,0.00,,2013-03-29 23:53:00,
2013-03-29 20:03:00,45.0,32.0,29.92,West,272,2.0,6.0,59,0.00,,,0.00,,2013-03-30 00:03:00,
2013-03-29 20:12:00,45.0,32.0,29.92,West,272,2.0,6.0,59,0.00,,,0.00,,2013-03-30 00:12:00,
2013-03-29 20:22:00,45.0,32.0,29.93,West,273,2.0,6.0,59,0.00,,,0.00,,2013-03-30 00:22:00,
2013-03-29 20:32:00,45.0,32.0,29.93,West,271,4.0,7.0,59,0.00,,,0.00,,2013-03-30 00:32:00,
2013-03-29 20:43:00,45.0,32.0,29.93,West,271,4.0,7.0,59,0.00,,,0.00,,2013-03-30 00:43:00,
2013-03-29 20:53:00,45.0,32.0,29.94,WSW,252,2.0,9.0,59,0.00,,,0.00,,2013-03-30 00:53:00,
2013-03-29 21:03:00,45.0,32.0,29.94,WSW,251,4.0,7.0,60,0.00,,,0.00,,2013-03-30 01:03:00,
2013-03-29 21:13:00,45.0,32.0,29.94,WSW,251,4.0,7.0,60,0.00,,,0.00,,2013-03-30 01:13:00,
2013-03-29 21:22:00,44.0,32.0,29.95,West,271,1.0,4.0,62,0.00,,,0.00,,2013-03-30 01:22:00,
2013-03-29 21:33:00,43.0,31.0,29.94,WSW,242,2.0,5.0,63,0.00,,,0.00,,2013-03-30 01:33:00,
2013-03-29 21:43:00,43.0,31.0,29.94,WSW,242,2.0,5.0,63,0.00,,,0.00,,2013-03-30 01:43:00,
2013-03-29 21:53:00,42.0,31.0,29.95,West,280,1.0,3.0,66,0.00,,,0.00,,2013-03-30 01:53:00,
2013-03-29 22:03:00,42.0,32.0,29.95,West,263,1.0,4.0,67,0.00,,,0.00,,2013-03-30 02:03:00,
2013-03-29 22:13:00,42.0,32.0,29.95,West,263,1.0,4.0,67,0.00,,,0.00,,2013-03-30 02:13:00,
2013-03-29 22:22:00,42.0,31.0,29.96,WSW,242,2.0,4.0,66,0.00,,,0.00,,2013-03-30 02:22:00,
2013-03-29 22:33:00,42.0,31.0,29.95,WNW,301,3.0,6.0,66,0.00,,,0.00,,2013-03-30 02:33:00,
2013-03-29 22:43:00,42.0,31.0,29.95,WNW,301,3.0,6.0,66,0.00,,,0.00,,2013-03-30 02:43:00,
2013-03-29 22:53:00,42.0,31.0,29.95,WNW,293,2.0,6.0,66,0.00,,,0.00,,2013-03-30 02:53:00,
2013-03-29 23:03:00,42.0,31.0,29.95,West,270,3.0,6.0,66,0.00,,,0.00,,2013-03-30 03:03:00,
2013-03-29 23:12:00,42.0,31.0,29.95,West,270,3.0,6.0,66,0.00,,,0.00,,2013-03-30 03:12:00,
2013-03-29 23:22:00,42.0,32.0,29.95,NW,309,3.0,8.0,67,0.00,,,0.00,,2013-03-30 03:22:00,
2013-03-29 23:33:00,41.0,31.0,29.95,NW,323,3.0,10.0,68,0.00,,,0.00,,2013-03-30 03:33:00,
2013-03-29 23:43:00,41.0,31.0,29.95,NW,323,3.0,10.0,68,0.00,,,0.00,,2013-03-30 03:43:00,
2013-03-29 23:53:00,41.0,31.0,29.96,NNW,334,3.0,6.0,68,0.00,,,0.00,,2013-03-30 03:53:00,